Content
SEND FEEDBACK

Daily
Averages
Monthly
Summary
France

BIARRITZ, FRANCE


Home > Europe > France
Elevation: 246 feet     Latitude: 43 28N     Longitude: 001 31W

WEATHER
 
SELECT A DAY
Number of Records: 191,810;   Date Range: 7/1/96 - 9/15/14
 
SHARE

PRINT THIS DATA

[ ← Previous Day ]
WEATHER ALMANAC - MAY 6, 2013
[ Next Day → ]
[ °C ]   °F
Weather ElementAverageHighLow
Temperature60.8 °F77 °F (3:00 pm)46.4 °F (6:30 am)
Dewpoint48.2 °F55.4 °F (6:30 pm)39.2 °F (4:30 pm)
Humidity68.5 %93 % (4:30 am)26 % (4:30 pm)
Barometer30.08 in30.15 in (12:30 am)30.01 in (4:30 pm)
Wind Speed6.4 mph27.6 mph (6:30 pm)
Weather ElementAverage
Visibility6.2 mi
Wind DirectionESE (96.4 °)

Weather ElementTotal
Precipitation---
Heating Degree Days3.3 (Base 65)
Growing Degree Days11.7 (Base 50)
Averaged from 47 records on May 6, 2013
WEATHER CONDITIONS BREAKOUT
WIND DIRECTION BREAKOUT
WEATHER BY HOUR - MAY 6, 2013
[ °C ]   °F
Local TimeTemperatureDewpointHumidityBarometerVisibilityWind DirectionWind SpeedGust SpeedPrecipitationEventsConditions
12:30 AM53.6 °F50.0 °F88 %30.15 in6.2 miSW (220°)3.5 mph
1:00 AM53.6 °F48.2 °F82 %30.15 in6.2 miVariable3.5 mph
1:30 AM51.8 °F48.2 °F88 %30.15 in6.2 miVariable3.5 mph
2:00 AM51.8 °F48.2 °F88 %30.15 in6.2 miVariable3.5 mph
2:30 AM53.6 °F48.2 °F82 %30.12 in6.2 miVariable3.5 mph
3:00 AM51.8 °F48.2 °F88 %30.12 in6.2 miVariable2.3 mph
3:30 AM50.0 °F46.4 °F87 %30.12 in6.2 miVariable3.5 mph
4:00 AM50.0 °F46.4 °F87 %30.12 in6.2 miSSE (160°)4.6 mph
4:30 AM48.2 °F46.4 °F93 %30.09 in6.2 miSSE (160°)3.5 mph
5:00 AM48.2 °F44.6 °F87 %30.09 in6.2 miSSE (150°)3.5 mph
5:30 AM48.2 °F46.4 °F93 %30.09 in6.2 miSSE (150°)3.5 mph
6:00 AM48.2 °F46.4 °F93 %30.09 inSSE (150°)3.5 mphClear
6:30 AM46.4 °F44.6 °F93 %30.09 inSSE (150°)4.6 mphClear
7:00 AM48.2 °F46.4 °F93 %30.09 inSSE (150°)5.8 mphClear
7:30 AM46.4 °F44.6 °F93 %30.09 inSSE (150°)4.6 mphClear
8:00 AM50.0 °F46.4 °F87 %30.09 inSE (130°)4.6 mphClear
8:30 AM53.6 °F48.2 °F82 %30.12 inVariable3.5 mphClear
9:00 AM55.4 °F50.0 °F82 %30.09 inVariable3.5 mphClear
9:30 AM57.2 °F50.0 °F77 %30.09 inVariable3.5 mphClear
10:00 AM60.8 °F51.8 °F72 %30.09 inVariable3.5 mphClear
10:30 AM64.4 °F51.8 °F64 %30.09 inVariable3.5 mphClear
11:00 AM68.0 °F53.6 °F60 %30.09 inEast (100°)4.6 mphClear
11:34 AM69.8 °F51.8 °F53 %30.09 inESE (110°)8.1 mphClear
12:00 PM71.6 °F48.2 °F43 %30.09 inEast (90°)8.1 mphClear
12:30 PM73.4 °F50.0 °F44 %30.09 inESE (110°)10.4 mphClear
1:00 PM73.4 °F50.0 °F44 %30.09 inEast (80°)11.5 mphClear
1:30 PM73.4 °F46.4 °F38 %30.06 inEast (80°)11.5 mphClear
2:00 PM75.2 °F46.4 °F36 %30.06 inEast (80°)9.2 mphClear
2:30 PM75.2 °F46.4 °F36 %30.06 inEast (80°)9.2 mphClear
3:00 PM77.0 °F44.6 °F32 %30.04 inENE (60°)8.1 mphClear
3:30 PM77.0 °F42.8 °F29 %30.04 inENE (70°)5.8 mphClear
4:00 PM77.0 °F42.8 °F29 %30.04 inNE (50°)8.1 mphClear
4:30 PM77.0 °F39.2 °F26 %30.01 inEast (80°)9.2 mphClear
5:00 PM77.0 °F42.8 °F29 %30.01 inENE (60°)8.1 mphClear
5:30 PM77.0 °F44.6 °F32 %30.01 inENE (70°)9.2 mphClear
6:00 PM75.2 °F39.2 °F27 %30.01 in6.2 miENE (70°)6.9 mphMostly Cloudy
6:30 PM60.8 °F55.4 °F82 %30.04 in5.6 miWest (280°)27.6 mphMostly Cloudy
7:05 PM60.8 °F53.6 °F77 %30.06 in6.2 miWest (270°)15.0 mphMostly Cloudy
7:30 PM59.0 °F53.6 °F82 %30.06 in6.2 miWSW (250°)11.5 mphMostly Cloudy
8:00 PM59.0 °F51.8 °F77 %30.06 in6.2 miWSW (240°)8.1 mphMostly Cloudy
8:30 PM59.0 °F51.8 °F77 %30.06 in6.2 miEast (100°)4.6 mphRainLight Rain
9:00 PM59.0 °F53.6 °F82 %30.06 in6.2 miVariable4.6 mph
9:30 PM59.0 °F51.8 °F77 %30.06 in6.2 miNorth (360°)4.6 mph
10:00 PM59.0 °F51.8 °F77 %30.09 in6.2 miWest (270°)9.2 mph
10:30 PM59.0 °F50.0 °F72 %30.09 in6.2 miVariable3.5 mph
11:00 PM59.0 °F51.8 °F77 %30.06 in6.2 miVariable2.3 mph
11:30 PM57.2 °F51.8 °F82 %30.06 in6.2 miVariable3.5 mph
Hourly data recorded from LFBZ, located miles away from Biarritz, France







STORIES FROM OUR PARTNERS